Starlink 36258

operational
NORAD ID: 67104 Int'l Des: 2025-299 Owner: SPXS Country: US Constellation: starlink
LEOCIRCULAR

Starlink 36258について

説明を読み込み中...

リアルタイム位置

3D地球を読み込み中...

次回通過

高度履歴

Altitude vs Time

uPlot chart will show altitude changes over time

軌道要素

1 67104C 25299C 25349.43659722 .00340400 00000+0 53916-3 0 3492
2 67104 43.0011 301.4547 0007209 269.4376 345.0121 16.02406740 15
Epoch: Dec 15, 2025 • Age: 68 hours

現在のステータス

高度 263.8 km
速度 7.75 km/s
衛星直下点 21.88°N, 73.01°W
打ち上げ日 Dec 15, 2025
運用期間 2 days
タイプ internet

技術仕様

分類 Payload
質量 575.00 kg
乾燥質量 530.00 kg
総質量 575.00 kg
長さ 0.30 m
直径 4.10 m
スパン 29.00 m
形状 Box + pan
製造者 SPXS
バスタイプ Starlink V2MO
フェーズステータス In Orbit
所有者/国 SPXS/US

大規模コンステレーション

Loading constellations...